Regional Weather Roundup
Issued by NWS

Home | Current Version | Previous Version | Text Only | Print | Product List | Glossary Off
Versions: 1 2 3 4 5 6 7 8 9 10 11 12 13 14 15 16 17 18 19 20 21 22 23 24 25 26 27 28 29 30 31 32 33 34 35 36 37 38 39 40 41 42 43 44 45 46 47 48 49 50

000
ASUS43 KDTX 280701
RWRMI
MICHIGAN HOURLY REGIONAL WEATHER ROUNDUP
NATIONAL WEATHER SERVICE DETROIT/PONTIAC MI
200 AM EST SAT FEB 28 2015

NOTE: "FAIR" INDICATES FEW OR NO CLOUDS BELOW 12,000 FEET WITH NO
SIGNIFICANT WEATHER AND/OR OBSTRUCTION TO VISIBILITY.

MIZ047>049-052>055-059>063-066>070-074>076-081>083-280800-
SOUTHEAST LOWER MICHIGAN

CITY           SKY/WX    TMP DP  RH WIND       PRES   REMARKS
ADRIAN         CLEAR     -4  -8  83 CALM      30.67R
ALMA           CLEAR      3  -2  78 S3        30.62R
ANN ARBOR      CLEAR     -9 -13  83 W3        30.66R
BAD AXE        CLEAR      1  -4  81 S3        30.62S
CARO           CLEAR     -5  -9  84 CALM      30.62S
DETROIT CITY   CLEAR     11  -2  56 W6        30.67S WCI   1
DETROIT        CLEAR      5  -4  66 S5        30.68R WCI  -4
FLINT          CLEAR      6  -3  66 SW6       30.63S WCI  -4
GROSSE ILE     CLEAR      9  -2  61 W6        30.67R WCI  -1
HILLSDALE      PTCLDY     2  -4  75 CALM      30.62R
HOWELL         CLEAR      3  -3  74 S3        30.62S

CITY           SKY/WX    TMP DP  RH WIND       PRES   REMARKS
JACKSON        CLEAR      0  -4  83 SW6       30.64R WCI -12
LAMBERTVILLE   CLEAR      1  -6  71 CALM      30.69R
LANSING        FAIR       6  -3  66 SW8       30.64R WCI  -7
LAPEER         FAIR      -9 -14  80 CALM      30.63S
MASON          CLEAR      1  -5  75 CALM      30.63S
MONROE         PTCLDY     1  -6  71 CALM      30.67R
MT. CLEMENS    CLEAR      8  -1  64 SW5       30.65R WCI   0
PONTIAC        CLEAR      2  -4  76 SW3       30.62R
PORT HOPE        N/A      6  -2  69 SW5       30.61R WCI  -3
PORT HURON     CLEAR     -9 -13  84 CALM      30.67R
TRI CITIES     CLEAR      8   0  69 SW6       30.62F WCI  -2
TROY           CLEAR      9  -2  62 CALM      30.67S
SAGINAW HB     CLEAR      7   1  78 SW7       30.63S WCI  -5
$$
MIZ043>046-050>051-056>058-064>065-071>073-077>080-280800-
SOUTHWEST LOWER MICHIGAN

CITY           SKY/WX    TMP DP  RH WIND       PRES   REMARKS
BATTLE CREEK   CLEAR      3  -6  66 SW7       30.64R WCI  -9
BENTON HARBOR  PTCLDY    -3  -6  87 CALM      30.67R
BIG RAPIDS     CLEAR     -1  -3  90 CALM      30.57R
COLDWATER      PTCLDY    -5 -10  82 CALM      30.65R
FREMONT        FAIR      -1  -5  82 CALM      30.60S
HOLLAND        CLEAR      3  -3  76 S6        30.65R WCI  -8
GRAND RAPIDS   CLEAR      6  -2  69 SW8       30.63R WCI  -7
IONIA          FAIR       7  -1  69 SW9       30.61S WCI  -7
KALAMAZOO      PTCLDY     1  -6  72 SW3       30.65R
LUDINGTON      CLEAR     18   7  61 W6        30.59S WCI  10
MARSHALL       PTCLDY    -3  -6  84 S3        30.64R
MOUNT PLEASANT CLEAR      8   1  74 SW7       30.59F WCI  -4
MUSKEGON       PTCLDY    15   5  64 W10       30.63R WCI   2
SOUTH HAVEN    CLEAR      6  -1  74 S3        30.66R
$$
MIZ016>042-280800-
NORTHERN LOWER MICHIGAN

CITY           SKY/WX    TMP DP  RH WIND       PRES   REMARKS
ALPENA         CLEAR      4  -2  76 S6        30.55S WCI  -7
BEAVER ISLAND  CLEAR     11   5  75 SW7       30.51S WCI   1
BELLAIRE       CLEAR      6   2  83 CALM      30.56R
CADILLAC       CLEAR     -4  -7  84 SW3       30.50S
CHARLEVOIX     CLEAR      9   2  72 CALM      30.56R
FRANKFORT      CLEAR     17   6  60 W10       30.56R WCI   5
GAYLORD        CLEAR      4   0  83 SW8       30.47S WCI  -9
GRAYLING       PTCLDY   -10 -15  77 CALM      30.53R
HARBOR SPRINGS CLEAR      6   1  79 W5        30.52S WCI  -3
HOUGHTON LAKE  CLEAR      4  -2  76 SW7       30.53S WCI  -8
MANISTEE       CLEAR     -2  -9  71 E5        30.57S WCI -12
OSCODA         CLEAR      0  -5  78 SW6       30.58S WCI -12
PELLSTON       CLEAR     10   1  67 SW6       30.52R WCI   0
ROGERS CITY    CLEAR      7   2  82 SW8       30.53S WCI  -6
TRAVERSE CITY  CLEAR      3  -1  83 CALM      30.55R
$$
MIZ007>008-015-280800-
EASTERN UPPER MICHIGAN

CITY           SKY/WX    TMP DP  RH WIND       PRES   REMARKS
KINROSS        CLEAR      3   1  92 SW5       30.47S WCI  -6
MACKINAC ISLAN CLEAR      8   2  76 SW8       30.49S WCI  -4
NEWBERRY       CLEAR      3  -2  78 SW8       30.46R WCI -10
S. S. MARIE    FAIR      -3  -8  79 CALM      30.49R
MUNISING         N/A     -2  -8  76 S7        30.48R WCI -15
$$
MIZ004>006-011>014-085-280800-
CENTRAL UPPER MICHIGAN

CITY           SKY/WX    TMP DP  RH WIND       PRES   REMARKS
MANISTIQUE     PTCLDY    10  -2  58 W6        30.49R WCI   0
ESCANABA       CLEAR      7  -6  56 W7        30.52R WCI  -5
MENOMINEE      CLEAR      7  -6  56 W5        30.54R WCI  -2
SAWYER-GWINN   CLEAR      2  -8  60 W6        30.42S WCI  -9
$$
MIZ001>003-009>011-084-280800-
WESTERN UPPER MICHIGAN

CITY           SKY/WX    TMP DP  RH WIND       PRES   REMARKS
IRON MOUNTAIN  CLEAR     -2 -10  69 CALM      30.45R
HOUGHTON       CLEAR     10  -4  53 W21G26    30.39R WCI  -9
COPPER HARBOR    N/A     16  -2  45 W9G18     30.40R WCI   4
IRONWOOD       CLEAR      7  -2  66 SW10      30.41S WCI  -8
$$

ABBREVIATIONS USED IN REMARKS
   TC - TEMPERATURE IN CELSIUS
  WCI - WIND CHILL INDEX
   HX - HEAT INDEX
  VSB - VISIBILITY



USA.gov is the U.S. government's official web portal to all federal, state and local government web resources and services.